Location: Caltech
(34.1382°N, 118.1253°W)
Time: 22:32:53
(UTC-07:00)

ALOS - Visible Passes

Search period start: 20 April 2018 00:00
Search period end: 30 April 2018 00:00
Orbit: 683 x 687 km, 97.8° (Epoch: 20 April)

Date Brightness Start Highest point End Pass type
(mag) Time Alt. Az. Time Alt. Az. Time Alt. Az.
21 Apr 5.2 20:08:21 10° SW 20:11:16 16° W 20:14:11 10° NW visible
24 Apr 5.6 20:25:07 10° WSW 20:26:11 11° W 20:27:16 10° WNW visible
26 Apr 5.1 20:00:02 10° SW 20:03:23 20° W 20:06:46 10° NW visible
29 Apr 5.3 20:16:06 10° WSW 20:18:18 13° W 20:20:29 10° WNW visible
